Wetbulb
55.34 51.80 49.52 51.92 53.53 53.22 51.55 49.86 49.21 51.66 53.37 51.52 51.91 52.00 52.91 54.87 54.98 55.32 55.97 56.44 56.47 56.69 58.70 60.16 61.26 61.45 60.67 60.36 61.26 63.38 63.23 64.85 63.51 64.27 64.32 64.55 63.93 62.84 65.50 63.90 62.32 62.03 64.77 65.05
52.67 49.55 53.63 54.43 54.09 52.33 51.21 49.77 49.84 52.00 52.91 51.47 51.23 50.42 53.03 54.38 54.48 55.77 56.30 56.70 56.63 57.10 57.75 59.25 60.77 61.19 60.64 58.82 60.14 63.21 63.11 63.56 63.24 64.71 65.70 65.14 64.26 64.50 61.71 62.04 62.23 63.41 63.48 65.13
50.38 51.78 54.54 53.38 52.33 50.69 50.83 49.57 49.92 49.40 51.92 52.19 50.65 49.04 51.48 53.44 54.81 55.82 56.65 57.70 57.83 57.49 57.54 58.63 59.69 60.37 60.44 59.68 60.02 61.35 62.99 63.87 64.72 66.67 67.41 66.50 66.02 64.91 65.36 63.04 63.24 63.12 63.51 64.49
51.87 54.04 52.71 51.94 51.10 51.59 48.27 52.10 50.89 49.96 48.69 44.71 50.47 42.90 49.48 51.90 52.56 54.38 56.05 56.83 57.49 57.58 58.18 59.17 59.84 59.73 59.78 60.15 61.61 61.40 62.92 64.46 65.35 66.62 65.30 65.43 64.35 62.85 63.92 65.43 65.70 63.33 65.19 63.28
50.50 51.97 51.34 50.34 50.85 52.34 49.56 52.23 51.18 50.46 48.66 48.07 47.76 45.42 48.23 50.90 50.16 51.54 53.59 57.21 57.83 57.98 58.05 58.69 59.58 59.72 59.42 61.09 61.82 63.85 63.56 64.24 66.10 66.50 65.32 64.19 64.33 66.36 66.21 66.56 64.52 65.07 65.99 65.68
52.03 55.06 53.78 52.54 52.41 52.23 52.88 50.74 50.49 50.22 48.51 42.70 46.87 45.85 45.82 49.08 49.61 51.81 54.09 56.94 57.87 57.53 57.84 59.27 60.20 59.96 59.43 61.39 61.67 62.89 62.86 63.13 65.11 65.94 65.47 64.73 62.47 63.05 62.83 63.38 62.96 63.44 65.40 65.81
50.11 50.92 53.54 53.88 50.45 52.58 51.75 49.02 43.14 41.80 42.15 40.90 47.44 44.53 46.96 50.98 52.32 53.64 54.49 55.94 57.74 57.80 57.73 58.52 58.99 58.65 59.10 60.47 61.54 62.43 61.39 61.96 62.79 64.34 64.96 64.63 64.85 64.33 62.58 62.69 62.13 62.69 62.95 65.08
45.40 43.83 50.86 53.19 50.72 49.28 49.72 49.45 44.01 37.52 39.34 42.59 46.88 42.73 47.77 52.22 54.59 56.56 57.48 58.54 58.56 57.49 58.06 58.40 59.27 59.34 58.66 60.07 61.60 62.06 61.59 61.49 61.85 63.31 63.75 64.51 64.75 63.53 62.44 65.21 63.59 63.50 63.95 62.43
46.24 46.14 52.35 52.86 52.78 52.30 49.60 46.92 51.33 46.16 46.86 43.08 45.28 47.57 51.82 53.22 54.04 55.62 56.49 56.90 57.20 57.55 58.00 58.56 59.60 59.75 58.75 59.90 61.89 62.86 62.17 61.38 61.77 62.42 63.40 63.87 63.84 63.98 63.95 66.70 66.83 64.61 63.82 64.33
50.31 45.77 50.21 51.73 52.90 52.78 51.41 52.28 45.23 46.52 39.21 38.07 43.17 44.34 46.41 49.31 51.58 56.44 56.60 56.89 57.13 57.57 57.85 58.86 59.61 59.66 59.22 60.37 62.20 63.55 63.73 61.04 62.36 62.07 62.42 62.42 63.08 63.75 64.62 65.95 65.50 64.69 64.57 62.76
51.77 49.54 48.49 50.40 49.22 48.19 49.09 48.24 49.14 48.97 46.89 41.21 40.20 44.46 52.17 51.07 54.36 55.82 58.38 58.17 57.47 57.74 58.00 58.96 59.79 59.77 59.41 60.79 61.62 63.01 63.73 61.96 61.19 61.70 62.21 62.47 62.24 63.13 63.82 63.94 64.54 64.60 63.15 64.58
51.84 49.64 45.65 46.77 51.60 52.51 51.65 49.29 49.82 44.73 43.77 45.98 45.01 45.26 53.77 54.63 56.88 58.63 59.45 58.58 58.39 58.78 58.67 59.47 59.91 59.16 58.80 60.16 61.03 62.18 63.30 62.10 60.30 61.14 61.53 62.13 61.97 62.83 63.15 63.74 64.48 65.34 65.06 64.58
51.46 47.91 43.02 44.62 49.02 51.66 48.73 50.06 50.53 50.70 49.95 45.73 43.21 45.17 54.64 55.89 57.20 59.30 59.96 58.89 58.01 58.60 58.59 59.30 59.83 58.29 58.29 59.81 60.37 61.24 62.89 62.04 60.06 59.93 60.63 61.66 61.65 62.52 62.88 63.45 63.60 64.12 63.64 64.84
53.59 49.40 46.52 42.93 46.01 48.84 47.04 48.07 50.03 49.77 45.94 45.95 46.52 48.05 51.47 53.77 55.62 58.28 59.84 59.33 58.52 58.52 58.38 59.25 59.58 58.42 58.46 59.51 59.81 60.78 62.12 61.81 59.64 59.75 59.44 60.44 61.61 62.11 62.75 63.49 63.87 63.49 63.04 63.19
53.32 47.12 48.07 47.99 48.60 49.31 48.46 47.73 48.54 48.00 48.94 46.16 48.02 48.50 51.57 53.95 55.62 57.61 60.31 59.58 58.01 57.65 57.98 58.91 59.15 58.57 58.59 59.28 59.93 60.74 61.80 61.05 59.98 59.56 59.55 59.72 61.81 61.73 62.33 62.47 63.58 64.04 63.31 62.58
53.73 47.06 48.51 46.64 48.01 48.12 46.84 48.53 49.29 49.17 49.40 49.36 49.67 49.32 54.93 55.92 56.48 58.33 59.75 58.92 57.99 57.53 58.16 59.14 59.55 58.92 58.41 59.20 59.68 60.67 61.44 60.90 60.75 60.06 59.93 59.83 59.79 60.90 61.46 62.44 63.26 63.42 63.05 62.63
50.24 48.27 46.89 43.28 46.92 46.58 44.09 47.50 48.89 49.75 50.99 50.62 47.59 51.57 54.76 54.59 56.41 58.45 59.69 59.24 58.94 58.79 58.80 59.31 59.80 59.64 59.18 59.65 60.49 60.79 61.54 61.73 60.76 60.20 60.48 59.69 58.87 59.62 61.05 61.19 61.85 62.86 63.43 64.09
50.42 48.92 48.29 44.46 46.06 37.84 47.76 52.07 51.20 49.87 50.86 52.45 52.28 53.35 54.65 55.32 57.89 59.17 60.94 60.68 60.42 60.12 59.98 60.23 60.80 60.96 60.35 60.50 60.96 61.86 61.89 61.59 60.31 60.14 60.25 60.02 58.24 58.41 60.26 60.96 61.58 63.21 63.98 64.04
53.17 51.25 46.06 43.89 44.20 45.60 48.51 50.91 50.01 48.89 49.00 53.06 52.87 53.66 54.42 56.23 57.85 57.87 60.90 62.16 62.29 62.49 62.20 61.62 61.97 62.26 61.59 60.44 61.56 61.36 61.34 61.30 60.00 59.53 60.06 60.17 58.72 58.30 59.54 60.08 61.61 62.82 63.24 63.57
49.04 53.00 48.11 46.20 42.32 39.01 48.82 52.60 54.69 54.31 46.43 54.17 54.94 54.96 55.13 55.99 53.18 54.98 61.63 62.47 62.77 63.70 63.75 62.90 62.71 62.65 62.25 61.42 61.84 61.37 60.90 60.71 59.81 59.60 60.03 60.64 59.60 59.02 59.07 60.23 61.57 62.46 62.59 62.00
43.88 46.11 45.25 45.25 45.12 47.01 52.89 54.27 56.40 46.61 48.84 56.60 56.80 57.19 57.05 56.07 57.80 59.80 61.59 63.02 63.46 64.00 63.74 64.42 63.44 62.28 63.83 62.66 61.59 60.82 60.91 60.41 60.89 60.64 60.35 61.08 60.72 59.68 60.83 61.65 61.93 61.57 61.31 60.58
43.97 43.22 43.26 46.65 43.98 41.66 55.78 55.65 50.38 55.18 60.55 58.59 59.54 59.85 59.44 60.46 60.96 61.38 62.15 62.75 63.00 63.53 63.31 63.46 62.90 62.65 63.47 62.90 61.79 60.77 60.55 61.88 61.91 61.22 60.18 61.17 61.55 59.34 60.27 61.72 61.60 61.21 60.61 59.79
42.69 47.31 46.11 47.20 47.44 56.72 58.09 56.92 59.60 59.54 58.21 59.03 60.41 61.27 61.65 61.10 61.09 61.62 61.60 62.50 62.99 63.34 63.44 62.86 63.13 62.88 63.38 63.29 62.57 61.12 62.04 62.05 61.74 61.23 60.59 61.43 61.93 60.20 60.73 61.24 60.77 59.67 60.33 58.24
46.70 49.57 47.23 47.88 51.17 52.76 55.27 58.46 59.85 61.06 59.89 60.27 61.49 62.03 62.05 61.17 61.75 61.51 61.74 62.26 62.35 63.04 63.79 63.44 62.99 62.49 62.36 62.99 63.06 63.76 62.70 62.26 61.30 61.47 61.18 61.66 61.48 60.35 59.98 60.79 60.73 59.31 59.10 58.39
46.00 47.72 46.33 47.23 50.69 52.25 53.36 55.05 58.09 60.14 61.08 60.04 60.88 61.21 60.91 61.08 60.99 61.51 61.36 61.83 62.39 62.67 63.39 63.91 62.70 62.78 62.51 62.87 63.17 63.66 62.94 62.43 61.96 62.00 61.77 61.76 61.56 60.91 60.03 60.09 60.16 59.37 62.45 58.42
48.32 46.91 44.40 44.39 50.88 52.16 53.11 55.81 56.27 59.17 59.32 60.16 59.99 60.30 61.37 61.36 61.11 61.55 61.48 62.62 62.99 62.88 63.57 63.61 63.35 63.35 63.27 62.93 62.98 63.29 63.18 62.65 63.88 63.33 62.03 61.62 60.93 61.02 60.25 59.14 58.79 47.61 47.02 46.14
MSLP
1004.38 1003.94 1002.85 1002.87 1003.46 1003.57 1003.58 1004.00 1003.85 1003.91 1004.38 1004.76 1004.19 1003.56 1003.58 1003.61 1003.53 1003.76 1004.39 1005.29 1006.39 1007.45 1008.59 1009.84 1010.61 1011.11 1011.40 1011.71 1011.95 1012.00 1012.04 1012.01 1012.02 1011.22 1010.76 1010.85 1010.99 1011.31 1011.37 1011.40 1011.28 1011.07 1010.39 1010.15
1003.45 1002.12 1002.16 1002.88 1003.17 1003.77 1004.04 1003.80 1003.81 1003.91 1004.54 1004.73 1003.99 1003.25 1003.07 1002.84 1002.59 1002.81 1003.50 1004.48 1005.70 1007.00 1008.28 1009.52 1010.27 1010.85 1011.11 1011.42 1011.68 1011.79 1011.76 1011.81 1011.84 1011.21 1011.27 1011.32 1011.16 1011.24 1011.57 1011.44 1011.25 1010.75 1010.51 1010.01
1001.13 1001.10 1002.11 1002.31 1002.80 1003.56 1003.58 1003.45 1003.63 1003.99 1004.24 1004.47 1003.76 1002.92 1001.93 1002.07 1001.93 1002.23 1003.15 1003.76 1004.88 1006.10 1007.58 1008.84 1009.72 1010.36 1010.65 1011.13 1011.43 1011.52 1011.62 1011.61 1011.76 1011.49 1011.38 1011.54 1011.42 1011.34 1011.36 1011.43 1011.15 1010.74 1010.53 1010.32
1000.84 1000.66 1001.12 1002.08 1002.33 1002.99 1002.64 1003.37 1003.95 1004.08 1004.32 1003.55 1003.70 1002.23 1001.69 1001.28 1000.97 1001.20 1002.13 1003.12 1004.05 1005.48 1007.04 1008.13 1009.09 1009.93 1010.28 1010.73 1011.21 1011.35 1011.50 1011.51 1011.53 1011.43 1011.17 1011.38 1011.28 1010.83 1011.18 1011.35 1011.31 1011.07 1010.52 1010.60
999.51 999.85 1000.86 1001.14 1001.46 1002.23 1002.47 1002.96 1003.71 1004.01 1003.98 1003.86 1003.22 1002.34 1001.05 1000.58 1000.60 1000.39 1000.69 1001.81 1003.37 1004.84 1006.37 1007.45 1008.48 1009.36 1009.89 1010.58 1010.95 1011.14 1011.31 1011.39 1011.58 1011.53 1011.55 1011.05 1011.03 1011.32 1011.24 1011.11 1011.29 1011.00 1010.79 1010.68
999.58 1000.02 1000.59 1000.80 1001.43 1002.01 1002.81 1003.46 1003.91 1004.15 1003.94 1003.22 1002.32 1001.77 1000.49 999.95 1000.14 1000.08 1000.39 1001.44 1002.88 1004.49 1006.06 1007.19 1008.37 1009.06 1009.61 1010.28 1010.75 1011.02 1011.07 1011.33 1011.49 1011.47 1011.57 1011.67 1011.82 1011.69 1011.57 1011.32 1011.33 1011.26 1011.18 1011.07
999.43 999.29 1000.07 1000.59 1000.91 1001.95 1002.34 1002.82 1002.76 1002.86 1002.59 1002.09 1002.14 1001.79 1000.37 1000.00 999.99 1000.03 1000.37 1001.11 1002.82 1004.23 1005.59 1006.79 1007.91 1008.68 1009.32 1009.89 1010.53 1010.82 1010.89 1011.16 1011.39 1011.43 1011.58 1011.72 1011.63 1011.76 1011.76 1011.81 1011.88 1011.82 1011.75 1011.48
997.77 998.34 998.95 999.70 999.86 1000.58 1001.30 1001.65 1001.35 1001.26 1001.51 1001.27 1002.04 1001.02 999.65 999.74 999.96 1000.34 1000.85 1001.49 1002.71 1004.08 1005.27 1006.38 1007.45 1008.35 1008.98 1009.57 1010.27 1010.62 1010.77 1011.01 1011.26 1011.35 1011.66 1011.75 1011.68 1011.30 1011.95 1011.84 1012.02 1012.03 1011.97 1012.24
996.38 996.80 997.79 998.96 999.63 999.87 1000.22 1000.85 1001.30 1001.35 1001.34 1001.64 1000.89 1000.28 999.97 999.61 999.42 1000.00 1000.84 1001.89 1002.94 1004.06 1005.12 1006.10 1007.15 1008.06 1008.67 1009.33 1009.99 1010.50 1010.66 1010.93 1011.20 1011.42 1011.75 1011.80 1011.79 1011.76 1011.80 1012.05 1011.88 1012.10 1012.26 1012.38
995.98 996.79 997.66 998.62 999.48 999.34 999.26 1000.68 1001.13 1001.26 1000.81 1000.51 1000.07 999.86 998.96 998.95 999.00 999.85 1000.77 1001.85 1003.09 1003.96 1004.89 1005.83 1006.81 1007.77 1008.44 1009.13 1009.80 1010.37 1010.58 1010.76 1011.10 1011.38 1011.64 1011.74 1011.82 1011.80 1011.83 1011.96 1012.09 1012.14 1012.18 1012.45
995.98 996.54 997.29 998.23 998.13 998.06 999.07 999.47 1000.05 1000.21 1000.22 999.87 999.64 998.93 998.76 998.87 999.09 999.44 1000.19 1001.51 1002.79 1003.62 1004.45 1005.34 1006.36 1007.49 1008.17 1008.85 1009.43 1010.10 1010.33 1010.65 1010.99 1011.28 1011.64 1011.86 1011.91 1011.93 1012.04 1012.02 1012.09 1012.38 1012.67 1012.60
995.07 996.50 996.65 996.96 997.53 997.91 998.12 998.70 999.42 999.57 1000.01 1000.12 999.47 998.37 998.49 998.77 999.00 999.48 1000.04 1001.12 1002.11 1002.98 1004.12 1005.04 1005.87 1007.01 1007.72 1008.45 1009.04 1009.76 1010.04 1010.28 1010.71 1011.08 1011.51 1011.89 1012.09 1012.10 1012.23 1012.29 1012.39 1012.46 1012.74 1013.08
995.43 995.76 996.50 996.75 997.76 997.64 997.33 998.00 998.58 999.32 999.58 998.94 998.63 998.14 998.25 998.61 998.98 999.46 999.83 1000.76 1001.95 1002.64 1003.65 1004.69 1005.48 1006.44 1007.21 1007.98 1008.59 1009.15 1009.70 1010.00 1010.40 1010.79 1011.38 1011.88 1012.26 1012.32 1012.43 1012.63 1012.82 1012.55 1013.01 1013.09
995.02 995.18 994.82 994.16 995.27 996.93 997.35 997.34 997.75 998.24 998.47 998.52 998.00 997.64 997.36 997.85 998.26 999.01 999.69 1000.58 1001.42 1002.27 1003.12 1004.10 1005.02 1005.81 1006.70 1007.45 1008.11 1008.71 1009.24 1009.73 1010.30 1010.59 1011.15 1011.77 1012.28 1012.54 1012.64 1012.75 1012.84 1012.84 1012.91 1013.20
994.48 994.42 994.94 995.09 995.26 995.80 996.24 996.57 996.93 997.25 997.60 997.50 997.29 996.95 996.96 996.96 997.32 997.95 999.22 1000.25 1001.16 1001.81 1002.75 1003.53 1004.40 1005.11 1006.03 1006.91 1007.74 1008.41 1008.94 1009.48 1010.09 1010.42 1010.94 1011.66 1012.19 1012.57 1012.77 1012.92 1013.06 1013.18 1013.27 1013.32
994.29 994.00 994.56 994.64 994.99 995.07 995.42 995.71 996.04 996.47 996.64 996.82 996.78 996.38 996.44 996.67 996.83 997.73 998.70 999.66 1000.37 1001.00 1001.68 1002.76 1003.82 1004.62 1005.43 1006.29 1007.13 1007.97 1008.60 1009.27 1009.87 1010.23 1010.65 1011.34 1011.89 1012.30 1012.76 1013.09 1013.32 1013.47 1013.62 1013.68
993.83 994.09 994.28 994.07 994.61 994.95 994.60 994.02 994.76 995.39 995.62 995.86 995.69 996.02 996.01 996.12 996.79 997.18 998.05 998.98 999.56 1000.20 1000.83 1001.86 1002.91 1003.94 1004.94 1005.79 1006.70 1007.44 1008.19 1009.00 1009.66 1009.99 1010.39 1011.08 1011.64 1012.06 1012.62 1013.01 1013.28 1013.54 1013.85 1014.08
993.44 993.89 994.01 993.78 994.40 994.20 992.32 993.37 993.98 994.27 994.68 994.97 995.34 995.40 995.37 995.56 996.13 996.56 997.06 998.02 998.67 999.51 1000.24 1001.16 1002.33 1003.40 1004.47 1005.31 1006.36 1007.14 1007.76 1008.45 1009.11 1009.61 1010.03 1010.68 1011.26 1011.74 1012.33 1012.86 1013.31 1013.82 1014.14 1014.25
993.48 993.42 993.39 993.32 993.25 993.08 992.87 992.94 992.72 993.24 993.59 994.19 994.52 994.80 994.83 995.05 995.64 995.69 996.25 997.40 997.95 998.64 999.45 1000.18 1001.16 1002.60 1003.93 1004.82 1005.73 1006.60 1007.25 1007.86 1008.31 1008.86 1009.53 1010.15 1010.77 1011.41 1012.05 1012.58 1013.26 1013.84 1014.19 1014.47
994.20 993.35 993.18 993.21 993.07 992.14 991.86 992.45 992.82 993.00 992.74 993.40 993.88 994.10 994.35 994.72 995.00 994.55 995.69 997.00 997.61 998.18 999.02 999.78 1000.68 1001.94 1003.28 1004.38 1005.21 1006.00 1006.55 1007.16 1007.46 1008.03 1008.83 1009.59 1010.26 1011.01 1011.76 1012.39 1013.11 1013.73 1014.10 1014.33
994.01 993.51 992.87 992.82 992.83 992.19 991.91 991.70 992.86 992.53 992.28 992.52 993.05 993.61 993.96 994.15 994.15 994.36 994.86 996.34 997.13 997.92 998.75 999.48 1000.21 1000.96 1001.90 1003.39 1004.52 1005.23 1005.82 1006.37 1006.93 1007.44 1008.24 1009.10 1010.04 1010.78 1011.49 1012.25 1013.01 1013.55 1013.86 1013.88
992.85 992.82 992.61 992.54 992.51 992.14 992.15 992.16 992.22 992.09 992.43 992.54 992.83 993.03 993.53 994.00 994.58 995.03 995.72 996.17 996.74 997.63 998.48 999.19 999.90 1000.46 1001.57 1002.64 1003.64 1004.39 1004.93 1005.75 1006.47 1007.02 1007.74 1008.63 1009.72 1010.42 1011.18 1011.94 1012.60 1013.12 1013.50 1013.90
992.68 992.38 992.36 992.55 992.45 992.59 992.52 991.96 992.47 992.14 992.25 992.66 992.69 993.01 993.34 993.84 994.54 994.98 995.56 996.01 996.60 997.27 998.21 998.78 999.41 1000.31 1001.23 1002.08 1002.72 1003.25 1003.89 1005.11 1005.88 1006.56 1007.32 1008.20 1009.29 1010.08 1010.73 1011.52 1012.09 1012.54 1013.06 1013.10
994.02 993.72 993.36 993.33 992.85 992.97 992.72 992.78 992.52 992.51 992.44 992.61 992.90 992.99 993.36 993.85 994.32 994.85 995.48 995.90 996.36 996.82 997.64 998.34 998.93 999.68 1000.55 1001.32 1001.65 1001.92 1003.41 1004.29 1005.11 1006.07 1007.01 1007.83 1008.65 1009.51 1010.21 1010.88 1011.46 1011.67 1012.17 1012.36
994.55 994.36 994.28 994.02 993.94 993.44 993.22 992.78 992.61 992.81 993.07 993.42 993.23 993.05 993.30 993.70 994.19 994.63 994.99 995.61 995.94 996.17 996.82 997.73 998.24 998.74 999.59 1000.62 1001.19 1001.89 1002.51 1003.41 1004.30 1005.34 1006.32 1007.19 1007.97 1008.89 1009.48 1009.98 1010.25 1010.76 1011.32 1011.74
994.94 994.24 993.86 993.61 994.26 993.89 993.47 993.20 992.75 993.00 993.11 993.31 993.08 993.18 993.47 993.69 994.02 994.55 994.60 995.02 995.51 995.97 996.52 997.20 997.80 998.18 998.77 999.71 1000.54 1001.23 1001.73 1002.51 1003.33 1004.48 1005.38 1006.15 1006.74 1007.92 1008.39 1009.16 1009.78 1010.51 1011.00 1011.62
Wind_Speed
21 20 23 26 22 17 13 12 14 12 7 10 16 14 15 15 17 13 13 14 15 15 13 12 10 7 5 3 3 5 5 6 6 6 7 6 6 6 3 1 3 6 7 4
17 23 25 21 18 17 15 17 17 11 10 9 15 17 19 16 16 13 13 14 16 15 15 13 12 9 6 2 2 5 4 5 5 5 5 5 4 4 2 3 4 5 1 4
23 21 22 20 16 18 19 17 15 12 12 12 16 17 12 8 9 10 11 11 14 17 17 16 14 10 7 5 4 1 4 5 5 6 6 4 2 1 3 3 4 3 2 4
22 20 20 17 23 21 20 16 15 13 13 12 4 14 14 10 11 11 11 12 13 16 17 16 15 12 9 6 5 2 3 4 5 7 6 7 4 3 3 3 4 2 6 4
23 23 23 23 22 20 16 13 13 15 12 12 16 8 10 6 9 7 6 11 12 15 18 17 16 13 10 8 6 3 1 4 5 7 8 7 6 4 3 2 4 5 7 8
23 15 19 19 14 13 15 8 9 8 11 12 15 10 9 3 4 5 5 3 9 14 17 16 14 13 11 9 7 4 3 4 4 6 7 8 8 8 5 4 4 4 5 5
25 20 19 17 18 13 17 13 10 11 10 11 3 7 10 10 8 9 9 5 9 15 18 17 17 14 12 11 8 6 4 5 4 5 6 7 7 5 3 4 3 3 4 8
22 26 26 18 18 17 20 17 11 11 11 10 6 7 4 2 5 6 4 4 10 16 17 18 17 13 13 12 10 7 5 6 5 6 6 6 8 6 5 6 5 4 7 4
23 24 28 23 21 20 14 16 16 15 13 8 11 5 11 7 7 4 2 5 12 16 18 18 17 14 12 12 11 8 6 6 6 6 5 5 6 6 5 7 7 6 6 4
11 19 15 23 20 22 20 15 11 10 14 13 9 7 7 3 5 4 7 8 13 16 18 17 15 14 12 12 10 9 7 6 7 6 4 5 6 6 6 5 7 7 4 6
15 12 22 17 22 21 13 17 14 13 13 12 9 6 5 4 3 3 7 11 15 17 18 18 16 14 14 13 11 9 8 7 7 6 5 5 5 6 6 6 7 9 7 6
30 13 15 22 20 22 22 22 20 12 15 10 11 10 4 5 1 2 8 13 17 18 17 17 16 16 15 13 12 10 8 7 8 7 6 6 6 6 6 7 8 9 10 9
25 15 16 16 11 15 22 21 21 20 15 16 12 9 6 6 6 4 10 14 15 18 19 16 16 16 15 14 13 11 10 9 8 9 8 7 6 6 6 7 5 10 9 10
22 17 27 22 20 19 22 21 23 22 17 15 16 16 9 8 9 8 9 13 16 18 20 17 16 16 15 14 13 11 11 11 9 9 8 8 7 8 6 6 7 8 9 12
20 25 24 25 20 25 21 22 24 25 22 20 16 17 14 10 9 8 11 13 16 19 20 19 18 16 16 15 13 12 11 12 11 10 10 9 8 8 8 7 7 7 8 10
22 15 21 22 26 20 22 25 23 25 25 22 18 17 11 11 5 8 12 16 18 21 23 20 19 18 18 17 15 13 12 12 12 11 10 10 10 10 9 7 7 8 9 9
22 16 15 21 20 21 24 26 25 23 25 22 22 18 15 10 12 12 13 16 18 19 22 22 21 19 17 17 16 16 14 13 12 11 11 10 10 11 10 9 8 8 8 8
19 21 13 13 16 20 17 22 25 23 20 21 20 17 17 14 14 15 13 16 16 18 19 20 18 18 18 18 17 15 15 15 14 13 12 11 11 12 11 10 9 8 7 8
13 17 12 12 17 7 12 12 22 23 23 19 21 20 19 13 11 11 12 15 16 18 18 19 20 19 18 19 18 17 16 16 15 14 13 12 12 13 12 12 10 9 8 7
6 12 14 12 19 27 11 15 14 17 18 19 21 19 18 13 11 13 17 16 15 14 15 17 20 21 19 19 19 18 18 17 16 16 14 14 13 13 13 13 11 9 8 8
11 11 17 13 14 11 4 19 12 18 7 14 18 19 18 14 17 6 8 17 16 14 15 16 19 21 22 21 21 21 19 19 17 16 15 14 13 13 13 12 11 10 9 8
13 12 12 14 13 13 9 12 18 8 6 6 12 14 14 18 17 7 6 12 16 15 15 16 17 19 20 23 21 21 21 19 17 17 16 15 14 12 12 13 12 11 10 9
13 13 11 12 9 7 12 8 13 7 10 9 8 11 13 14 14 10 9 11 12 11 11 14 15 16 18 21 22 22 21 20 19 17 17 16 15 13 13 13 12 11 11 10
10 6 5 6 10 4 7 8 5 11 9 5 7 8 10 11 9 10 11 10 12 11 10 11 15 18 18 20 23 22 20 21 20 19 17 16 16 15 13 11 11 10 11 10
13 13 13 11 14 11 12 16 10 10 8 7 8 9 10 9 8 9 10 10 9 9 10 11 14 16 19 19 20 20 22 22 20 19 18 17 15 16 14 13 12 12 11 11
13 14 14 11 8 14 14 13 19 12 12 12 9 9 9 9 9 9 7 7 8 8 8 11 13 14 17 18 18 20 22 23 20 18 17 16 15 15 13 13 12 9 2 13
Wind_Direction
192 204 206 208 218 237 265 257 257 256 273 263 276 286 287 282 274 256 254 224 216 207 190 180 182 182 184 203 250 283 320 339 343 335 343 354 9 23 36 2 314 292 268 227
187 216 212 220 216 229 232 242 248 254 268 281 288 286 293 291 271 264 245 221 212 198 187 181 180 185 187 182 233 271 312 345 343 339 353 345 15 24 16 331 345 338 284 195
204 214 217 215 214 217 228 241 248 260 294 268 262 272 289 288 244 247 244 230 205 198 188 182 182 184 176 179 193 263 346 349 5 347 46 24 134 100 88 32 28 20 247 226
218 218 191 199 218 216 232 221 258 258 267 281 350 294 293 271 268 232 224 215 205 195 188 180 179 178 175 164 171 169 21 19 61 22 44 23 42 38 14 35 94 26 85 75
207 209 192 207 215 212 241 236 232 254 268 283 265 252 291 262 278 267 243 203 199 189 185 179 176 175 172 156 170 161 82 66 58 56 29 2 21 49 351 66 54 70 71 116
224 208 202 213 214 217 225 203 225 244 256 250 257 260 278 284 312 296 268 71 181 179 182 174 172 168 168 161 162 164 110 87 77 56 46 30 45 34 15 354 69 19 45 59
213 192 208 213 207 204 221 211 223 217 217 249 141 251 258 309 299 299 294 308 169 172 175 171 172 175 172 164 166 173 141 103 81 56 57 42 54 61 48 33 49 61 58 60
199 206 190 197 204 185 201 208 236 225 243 249 155 254 223 338 316 292 306 315 152 170 171 172 173 176 175 169 167 175 139 125 104 80 62 56 32 58 68 59 101 98 85 55
195 208 195 202 208 216 181 219 227 256 269 272 275 201 252 254 245 216 200 142 157 168 169 172 171 177 175 172 169 178 148 125 111 93 83 72 57 38 64 77 82 63 70 74
190 207 188 195 207 210 223 201 200 222 242 238 239 236 262 254 15 97 172 154 162 167 168 171 172 175 176 171 166 179 174 141 126 107 92 79 78 51 50 72 74 70 80 89
182 205 191 188 204 201 186 221 214 253 225 232 246 256 90 283 25 6 158 160 165 173 174 170 172 174 175 171 168 180 172 156 140 128 113 94 88 69 71 64 67 82 88 109
201 198 177 211 197 219 200 213 205 222 211 247 279 263 119 261 281 266 162 165 172 172 175 174 170 173 174 175 172 177 172 166 146 137 129 108 104 94 78 73 77 88 108 118
191 209 206 193 189 215 225 212 218 216 247 242 228 230 145 173 202 195 173 164 172 175 171 176 173 175 178 176 178 178 176 169 153 148 142 132 118 117 94 88 76 87 107 112
193 201 209 209 199 194 208 223 215 216 222 231 238 253 226 208 215 178 181 169 173 178 171 177 179 177 178 178 181 181 177 161 158 152 146 142 139 136 118 106 102 93 91 104
190 210 208 224 215 200 207 213 213 218 219 232 231 235 236 239 208 209 181 176 175 179 179 180 182 178 177 176 180 183 176 165 164 159 150 149 148 144 144 128 116 104 103 104
191 212 218 213 221 209 214 217 211 216 221 228 238 250 215 240 242 178 179 181 185 185 187 183 182 180 180 176 179 180 177 171 170 166 156 155 161 153 152 148 134 129 123 117
192 206 205 219 215 221 225 215 214 219 224 226 229 232 243 222 229 203 188 190 190 194 190 184 184 181 182 178 182 177 179 174 175 175 163 161 165 165 160 161 157 143 137 131
192 196 199 201 197 209 244 213 220 222 224 223 237 233 231 224 223 225 184 193 192 190 196 189 184 181 180 180 181 179 179 178 180 181 170 169 171 172 168 168 162 154 152 149
215 190 194 204 201 214 187 204 209 214 230 218 221 222 231 224 238 237 208 199 193 194 193 191 187 180 177 181 176 182 183 182 183 182 178 175 174 172 175 175 168 168 165 160
169 215 196 207 192 217 171 168 199 209 226 209 217 219 226 218 216 228 184 195 201 192 194 189 181 177 177 182 177 183 186 188 187 183 181 177 175 173 178 180 177 175 180 179
168 183 199 184 213 222 283 169 167 192 194 190 209 217 221 211 225 256 179 188 195 187 192 186 178 182 181 177 179 185 186 193 191 182 178 176 175 175 176 174 173 175 186 178
179 179 196 199 202 209 157 146 194 184 102 182 201 211 209 213 224 192 194 191 188 186 196 192 185 185 178 179 181 187 192 190 190 183 179 176 174 180 173 175 176 179 181 182
213 202 196 203 201 94 167 191 206 186 215 208 209 195 200 211 219 186 194 178 181 179 190 192 192 184 179 185 187 190 188 185 188 185 181 177 176 185 172 178 177 178 180 186
221 284 256 251 215 195 217 250 231 223 237 199 209 187 197 207 206 203 196 192 201 185 184 192 191 187 185 191 194 198 181 183 183 186 185 180 179 182 178 184 181 191 185 194
237 224 234 254 264 267 228 255 246 241 229 209 213 193 193 198 196 187 176 185 198 192 198 199 199 193 190 193 200 196 187 183 184 184 185 185 185 185 181 195 188 195 189 197
244 244 235 233 245 245 235 236 249 230 228 226 210 191 192 188 182 187 174 172 179 190 206 197 204 200 190 193 198 197 192 188 181 184 186 188 188 183 187 189 189 211 226 190